Buzzards Bay, MA

5:37 AM EST on February 26, 2017 (GMT -0500)
Cape Cod Coast Guard Air Station

Weather History for KFMH - September, 2014

Change the Weather History Date:

Wednesday, September 3, 2014

  Actual Average Record
Temperature  
Mean Temperature 72 °F -  
Max Temperature 82 °F 73 °F 84 °F (2015)
Min Temperature 62 °F 57 °F 50 °F (2004)
Cooling Degree Days 7    
Growing Degree Days 22 (Base 50)    
Moisture  
Dew Point 63 °F    
Average Humidity 70    
Maximum Humidity 94    
Minimum Humidity 42    
Precipitation  
Precipitation 0.00 in - - ()
Sea Level Pressure  
Sea Level Pressure 29.92 in    
Wind  
Wind Speed 11 mph (West)    
Max Wind Speed 20 mph    
Max Gust Speed 26 mph    
Visibility 10 miles    
Events      
Averages and records for this station are not official NWS values.
T = Trace of Precipitation, MM = Missing Value Source: NWS Daily Summary

Daily Weather History Graph

Daily Weather History Graph

Search for Another Location

Airport or City:

Trip Planner

Search our weather history database for the weather conditions in past years. The results will help you decide how hot, cold, wet, or windy it might be!

Date:

Astronomy

Sep. 03, 2014 Rise Set
Actual Time 6:10 AM EDT 7:12 PM EDT
Civil Twilight 5:41 AM EDT 7:40 PM EDT
Nautical Twilight 5:07 AM EDT 8:14 PM EDT
Astronomical Twilight 4:32 AM EDT 8:49 PM EDT
Moon 2:53 PM EDT (9/3) No Moon Set
Length of Visible Light 13h 58m
Length of Day
13h 01m
Waxing Gibbous, 63% of the Moon is Illuminated
Sep 3
Waxing Gibbous
Sep 8
Full
Sep 15
Last Quarter
Sep 24
New
Oct 1
First Quarter

Hourly Weather History & Observations

Time (EDT) Temp. Heat Index Dew Point Humidity Pressure Visibility Wind Dir Wind Speed Gust Speed Precip Events Conditions
12:15 AM 75.2 °F - 69.8 °F 83% 29.79 in 10.0 mi SW 12.7 mph 21.9 mph N/A   Clear
12:35 AM 75.2 °F - 69.8 °F 83% 29.78 in 10.0 mi SW 15.0 mph 21.9 mph N/A   Clear
12:55 AM 73.4 °F - 69.8 °F 88% 29.77 in 10.0 mi WSW 16.1 mph - N/A   Clear
1:15 AM 73.4 °F - 69.8 °F 88% 29.77 in 10.0 mi SW 13.8 mph 19.6 mph N/A   Clear
1:35 AM 73.4 °F - 69.8 °F 88% 29.76 in 10.0 mi SW 13.8 mph - N/A   Clear
1:55 AM 75.2 °F - 69.8 °F 83% 29.75 in 10.0 mi SW 12.7 mph 19.6 mph N/A   Clear
2:15 AM 75.2 °F - 69.8 °F 83% 29.74 in 10.0 mi SW 16.1 mph 24.2 mph N/A   Clear
2:35 AM 75.2 °F - 69.8 °F 83% 29.74 in 10.0 mi SW 17.3 mph 23.0 mph N/A   Partly Cloudy
2:55 AM 75.2 °F - 69.8 °F 83% 29.74 in 10.0 mi SW 19.6 mph - N/A   Scattered Clouds
3:15 AM 75.2 °F - 69.8 °F 83% 29.74 in 10.0 mi SW 19.6 mph 26.5 mph N/A   Scattered Clouds
3:35 AM 73.4 °F - 69.8 °F 88% 29.74 in 10.0 mi WSW 17.3 mph 25.3 mph N/A   Mostly Cloudy
3:55 AM 73.4 °F - 68.0 °F 83% 29.74 in 10.0 mi WSW 16.1 mph 21.9 mph N/A   Mostly Cloudy
4:15 AM 73.4 °F - 68.0 °F 83% 29.75 in 10.0 mi WSW 13.8 mph 21.9 mph N/A   Partly Cloudy
4:35 AM 73.4 °F - 69.8 °F 88% 29.75 in 10.0 mi WSW 15.0 mph 23.0 mph N/A   Clear
4:55 AM 73.4 °F - 68.0 °F 83% 29.76 in 10.0 mi WSW 11.5 mph 19.6 mph N/A   Mostly Cloudy
5:15 AM 71.6 °F - 68.0 °F 88% 29.77 in 10.0 mi West 11.5 mph - N/A   Scattered Clouds
5:35 AM 71.6 °F - 69.8 °F 94% 29.79 in 10.0 mi West 8.1 mph 13.8 mph N/A   Clear
5:55 AM 71.6 °F - 69.8 °F 94% 29.81 in 10.0 mi NW 5.8 mph - N/A   Clear
6:15 AM 73.4 °F - 66.2 °F 78% 29.83 in 10.0 mi NW 9.2 mph - N/A   Clear
6:35 AM 73.4 °F - 64.4 °F 73% 29.84 in 10.0 mi NW 6.9 mph 16.1 mph N/A   Clear
6:55 AM 73.4 °F - 66.2 °F 78% 29.85 in 10.0 mi WNW 8.1 mph - N/A   Clear
7:15 AM 73.4 °F - 66.2 °F 78% 29.86 in 10.0 mi WNW 6.9 mph 12.7 mph N/A   Clear
7:35 AM 73.4 °F - 64.4 °F 73% 29.88 in 10.0 mi WNW 12.7 mph 20.7 mph N/A   Clear
7:55 AM 73.4 °F - 62.6 °F 69% 29.88 in 10.0 mi NW 9.2 mph 21.9 mph N/A   Clear
8:15 AM 73.4 °F - 62.6 °F 69% 29.89 in 10.0 mi WNW 15.0 mph - N/A   Clear
8:35 AM 75.2 °F - 62.6 °F 65% 29.90 in 10.0 mi WNW 12.7 mph 18.4 mph N/A   Clear
8:55 AM 75.2 °F - 62.6 °F 65% 29.90 in 10.0 mi NW 9.2 mph 17.3 mph N/A   Clear
9:15 AM 77.0 °F - 62.6 °F 61% 29.91 in 10.0 mi NW 11.5 mph - N/A   Clear
9:35 AM 77.0 °F - 62.6 °F 61% 29.92 in 10.0 mi NW 10.4 mph 16.1 mph N/A   Clear
9:55 AM 77.0 °F - 62.6 °F 61% 29.93 in 10.0 mi WNW 13.8 mph - N/A   Clear
10:15 AM 77.0 °F - 60.8 °F 57% 29.93 in 10.0 mi NW 10.4 mph 17.3 mph N/A   Clear
10:35 AM 77.0 °F - 60.8 °F 57% 29.93 in 10.0 mi NW 11.5 mph - N/A   Clear
10:55 AM 78.8 °F - 60.8 °F 54% 29.93 in 10.0 mi WNW 13.8 mph 19.6 mph N/A   Clear
11:15 AM 78.8 °F - 60.8 °F 54% 29.93 in 10.0 mi NW 9.2 mph 16.1 mph N/A   Clear
11:35 AM 78.8 °F - 60.8 °F 54% 29.93 in 10.0 mi NW 9.2 mph 20.7 mph N/A   Clear
11:55 AM 80.6 °F 81.5 °F 60.8 °F 51% 29.94 in 10.0 mi Variable 6.9 mph 13.8 mph N/A   Clear
12:15 PM 78.8 °F - 59.0 °F 51% 29.94 in 10.0 mi Calm Calm 13.8 mph N/A   Clear
12:35 PM 80.6 °F 81.1 °F 59.0 °F 48% 29.94 in 10.0 mi Variable 6.9 mph 12.7 mph N/A   Clear
12:55 PM 80.6 °F 81.5 °F 60.8 °F 51% 29.95 in 10.0 mi NE 5.8 mph - N/A   Clear
1:15 PM 80.6 °F 81.5 °F 60.8 °F 51% 29.95 in 10.0 mi North 5.8 mph - N/A   Clear
1:35 PM 82.4 °F 82.5 °F 59.0 °F 45% 29.96 in 10.0 mi Variable 5.8 mph - N/A   Light Drizzle
1:55 PM 82.4 °F 82.5 °F 59.0 °F 45% 29.97 in 10.0 mi WSW 4.6 mph 13.8 mph N/A   Clear
2:15 PM 82.4 °F 82.5 °F 59.0 °F 45% 29.97 in 10.0 mi Variable 6.9 mph 13.8 mph N/A   Clear
2:35 PM 82.4 °F 82.5 °F 59.0 °F 45% 29.97 in 10.0 mi West 6.9 mph - N/A   Clear
2:55 PM 82.4 °F 82.0 °F 57.2 °F 42% 29.97 in 10.0 mi WNW 6.9 mph 13.8 mph N/A   Clear
3:15 PM 80.6 °F 81.1 °F 59.0 °F 48% 29.97 in 10.0 mi WSW 8.1 mph - N/A   Clear
3:35 PM 80.6 °F 81.1 °F 59.0 °F 48% 29.97 in 10.0 mi West 9.2 mph - N/A   Clear
3:55 PM 80.6 °F 81.1 °F 59.0 °F 48% 29.97 in 10.0 mi SW 9.2 mph - N/A   Clear
4:15 PM 80.6 °F 81.1 °F 59.0 °F 48% 29.98 in 10.0 mi SW 9.2 mph - N/A   Clear
4:35 PM 80.6 °F 81.1 °F 59.0 °F 48% 29.98 in 10.0 mi SW 11.5 mph - N/A   Clear
4:55 PM 78.8 °F - 59.0 °F 51% 29.98 in 10.0 mi WSW 9.2 mph - N/A   Clear
5:15 PM 78.8 °F - 59.0 °F 51% 29.99 in 10.0 mi SW 10.4 mph - N/A   Clear
5:35 PM 77.0 °F - 60.8 °F 57% 30.00 in 10.0 mi WSW 6.9 mph 13.8 mph N/A   Clear
5:55 PM 77.0 °F - 59.0 °F 54% 30.00 in 10.0 mi West 6.9 mph - N/A   Clear
6:15 PM 77.0 °F - 60.8 °F 57% 30.01 in 10.0 mi West 4.6 mph - N/A   Clear
6:35 PM 75.2 °F - 62.6 °F 65% 30.02 in 10.0 mi SSW 3.5 mph - N/A   Clear
6:55 PM 75.2 °F - 62.6 °F 65% 30.02 in 10.0 mi Calm Calm - N/A   Clear
7:15 PM 73.4 °F - 62.6 °F 69% 30.02 in 10.0 mi SSW 4.6 mph - N/A   Clear
7:35 PM 71.6 °F - 62.6 °F 73% 30.03 in 10.0 mi SSW 3.5 mph - N/A   Clear
7:55 PM 69.8 °F - 62.6 °F 78% 30.04 in 10.0 mi SSW 4.6 mph - N/A   Clear
8:15 PM 68.0 °F - 62.6 °F 83% 30.05 in 10.0 mi Calm Calm - N/A   Clear
8:35 PM 68.0 °F - 62.6 °F 83% 30.06 in 10.0 mi Calm Calm - N/A   Clear
8:55 PM 66.2 °F - 62.6 °F 88% 30.06 in 10.0 mi Calm Calm - N/A   Clear
9:15 PM 66.2 °F - 62.6 °F 88% 30.07 in 10.0 mi Calm Calm - N/A   Clear
9:35 PM 64.4 °F - 60.8 °F 88% 30.07 in 10.0 mi Calm Calm - N/A   Clear
9:55 PM 64.4 °F - 60.8 °F 88% 30.07 in 10.0 mi Calm Calm - N/A   Clear
10:15 PM 64.4 °F - 62.6 °F 94% 30.07 in 10.0 mi Calm Calm - N/A   Clear
10:35 PM 62.6 °F - 60.8 °F 94% 30.07 in 10.0 mi Calm Calm - N/A   Clear
10:55 PM 62.6 °F - 60.8 °F 94% 30.08 in 10.0 mi Calm Calm - N/A   Clear
11:15 PM 62.6 °F - 60.8 °F 94% 30.08 in 10.0 mi Calm Calm - N/A   Clear
11:35 PM 62.6 °F - 60.8 °F 94% 30.08 in 10.0 mi Calm Calm - N/A   Clear
11:55 PM 62.6 °F - 60.8 °F 94% 30.09 in 10.0 mi Calm Calm - N/A   Clear